TimeMDT,TemperatureF,Dew PointF,Humidity,Sea Level PressureIn,VisibilityMPH,Wind Direction,Wind SpeedMPH,Gust SpeedMPH,PrecipitationIn,Events,Conditions,WindDirDegrees,DateUTC
12:54 AM,60.1,39.9,47,29.80,10.0,North,6.9,-,N/A,,Mostly Cloudy,10,2013-05-25 06:54:00
1:54 AM,59.0,37.9,46,29.82,10.0,ESE,9.2,-,N/A,,Mostly Cloudy,110,2013-05-25 07:54:00
2:54 AM,55.0,37.9,53,29.83,10.0,NNE,6.9,-,N/A,,Mostly Cloudy,30,2013-05-25 08:54:00
3:54 AM,51.1,39.9,66,29.84,10.0,NE,8.1,-,N/A,,Mostly Cloudy,40,2013-05-25 09:54:00
4:54 AM,50.0,39.9,68,29.84,10.0,North,9.2,-,N/A,,Partly Cloudy,350,2013-05-25 10:54:00
5:54 AM,50.0,39.9,68,29.84,10.0,North,8.1,-,N/A,,Clear,350,2013-05-25 11:54:00
6:54 AM,57.0,42.1,57,29.83,10.0,North,5.8,-,N/A,,Clear,350,2013-05-25 12:54:00
7:54 AM,68.0,37.0,32,29.81,10.0,Calm,Calm,-,N/A,,Clear,0,2013-05-25 13:54:00
8:54 AM,73.0,26.1,17,29.81,10.0,South,6.9,-,N/A,,Partly Cloudy,180,2013-05-25 14:54:00
9:54 AM,77.0,28.0,17,29.81,10.0,South,16.1,-,N/A,,Mostly Cloudy,170,2013-05-25 15:54:00
10:54 AM,80.1,14.0,8,29.81,10.0,SSW,21.9,28.8,N/A,,Mostly Cloudy,210,2013-05-25 16:54:00
11:54 AM,82.0,14.0,8,29.79,10.0,SSW,24.2,32.2,N/A,,Mostly Cloudy,200,2013-05-25 17:54:00
12:54 PM,84.9,9.0,6,29.76,10.0,SSW,23.0,31.1,N/A,,Mostly Cloudy,210,2013-05-25 18:54:00
1:54 PM,84.9,5.0,5,29.75,10.0,South,18.4,28.8,N/A,,Mostly Cloudy,190,2013-05-25 19:54:00
2:54 PM,86.0,3.0,4,29.73,10.0,SSW,24.2,31.1,N/A,,Mostly Cloudy,210,2013-05-25 20:54:00
3:54 PM,86.0,6.1,5,29.74,10.0,SSW,18.4,26.5,N/A,,Mostly Cloudy,210,2013-05-25 21:54:00
4:54 PM,82.9,7.0,6,29.74,10.0,SW,17.3,-,N/A,,Mostly Cloudy,230,2013-05-25 22:54:00
5:54 PM,84.0,6.1,5,29.72,10.0,SSW,17.3,25.3,N/A,,Mostly Cloudy,210,2013-05-25 23:54:00
6:54 PM,82.0,1.9,5,29.69,10.0,South,13.8,-,N/A,,Scattered Clouds,180,2013-05-26 00:54:00
7:54 PM,75.9,7.0,7,29.68,10.0,SW,12.7,-,N/A,,Scattered Clouds,220,2013-05-26 01:54:00
8:54 PM,72.0,9.0,9,29.69,10.0,SW,9.2,-,N/A,,Scattered Clouds,230,2013-05-26 02:54:00
9:54 PM,72.0,12.0,10,29.68,10.0,WNW,4.6,-,N/A,,Scattered Clouds,300,2013-05-26 03:54:00
10:54 PM,64.9,15.1,15,29.69,10.0,East,5.8,-,N/A,,Partly Cloudy,80,2013-05-26 04:54:00
11:54 PM,68.0,15.1,13,29.68,10.0,WSW,5.8,-,N/A,,Mostly Cloudy,240,2013-05-26 05:54:00